User: anonymous   Login
Location: Ammerl�gen
(47.2167°N, 9.6000°E)
Time: 05:18:52
(UTC+00:00)
Language:

FALCON 9 DEB - Orbit

View from above orbital plane
View from above orbital plane
View from above satellite
View from above satellite

Ground track
Ground track

The orbit data is extracted from the following two-line orbital elements,

1 46086U 20055BM  21171.28365948  .00010148  00000-0  10302-3 0  9996
2 46086  53.0059 181.8692 0010276 243.7976 116.1982 15.65877396 54135
Epoch (UTC): 20 June 2021 06:48:28
Eccentricity: 0.0010276
inclination: 53.0059°
perigee height: 364 km
apogee height: 377 km
right ascension of ascending node: 181.8692°
argument of perigee: 243.7976°
revolutions per day: 15.65877396
mean anomaly at epoch: 116.1982°
orbit number at epoch: 5413

The dashed part of the orbit path shows where the satellite is in the earth's shadow,  

DLR